Showing default

KUIPER-00304, 68599

Orbit data source: Space-Track

KUIPER-00304, 68599 is a payload satellite owned by Kuiper Systems (US) in LEO that was launched on Sat, 04 Apr 2026 UTC via an ATLAS V 551 launch vehicle from the Air Force Eastern Test Range (AFETR). Payload-class satellites include a variety of spacecraft equipped with specific instruments for various scientific and technological missions. These include communications satellites like Starlink; space stations such as the ISS; scientific satellites like the Hubble; Earth observation satellites from companies like Planet Labs, Umbra, and HawkEye 360; GPS; miniature CubeSats for education and research; and military/defense satellites.

Loading next visibility...
Identifier
68599, 2026-072AC
Orbit
LEO
Country
Flag of USUS
Related business
Manufacturer
Kuiper Systems
Mission
Operational spacecraft
Bus & Motor
KUIPER, Unknown motor
Mass
~490 kg wet, ~490 kg dry
Launch date (UTC)
2026-04-04 (2 months ago)
Launch vehicle
ATLAS V 551
Launch site
Air Force Eastern Test Range (AFETR)
Object type
Payload
Rocket body
Debris
Shape & HBR
Unknown shape, 3.4 m
Radar Cross Section
Large (>1 m²)

Expand to show TLE details & history
Last TLE update: 1 week ago

TLE from 1 week ago
0 KUIPER-00304
1 68599U 26072AC  26153.86625998  .00027409  00000-0  73812-3 0  9990
2 68599  51.8660 246.4048 0010995 335.2651  24.7807 15.37585663  9176
Epoch: 2026-06-02T20:47Z
TLE epoch observation values (Epoch: 2026-06-02T20:47:24.862Z)
Latitude
-0.00003°
Longitude
43.2181°
Altitude
447.196 km
Speed
7.649 km/s
True Right ascension
16h 25m 37s
True Declination
0° 00' 00"
Sunlit
Object was in full shadow at epoch
Visualization orbit readout
Latitude
Unknown
Longitude
Unknown
Altitude
Unknown
Speed
Unknown
Apparent Right ascension
Unknown
Apparent Declination
Unknown
Sunlit
N/A
Visualization observer readout
Local Sidereal Time
19:39:12
Azimuth
Unknown
Elevation
Unknown
Doppler factor
Unknown
Orbital elements
Apogee altitude
461.231 km
Perigee altitude
446.208 km
Semi-major axis
6,831.856 km
Eccentricity
0.0011
Inclination
51.866°
RAAN
246.4048°
Arg. of periapsis
335.2651°
True anomaly
24.83358°
Mean anomaly
24.7807°
Eccentric anomaly
24.80713°
Mean motion
3.84357 °/min
Orbital period
93.66 mins
BSTAR
0.00073812
Loading maneuver chart data...
Computing Atmospheric mass density...
Loading historical data...
Loading historical data...
Loading historical data...
Loading historical data...
Loading historical data...
Loading historical data...
Loading historical data...

Documentation

Showing up to 5 results
|